Wisconsin Dells, Wisconsin, United States (53965)
Lat: 43.63N, Lon: 89.77W
Wx Zone: WIZ057
Local Info
Past Weather Observations for Today

NOTE: This archive is for the closest National Weather Service station to Wisconsin Dells. Information may differ from the station used for current weather conditions.

Time Weather Temperature Dewpoint Humidity Pressure Winds Precip Visibility
13:15
Clear
46°F / 8°C 28°F / -2°C 50% 30.06 in
(1018 mb)
SSE 20.7 mph
(SSE 33 kph)
- 10SM
12:55
Clear
48°F / 9°C 28°F / -2°C 46% 30.06 in
(1018 mb)
SSE 26.5 mph
(SSE 43 kph)
- 10SM
12:35
Clear
48°F / 9°C 27°F / -3°C 43% 30.06 in
(1018 mb)
SSE 23 mph
(SSE 37 kph)
- 10SM
12:15
Partly Cloudy
46°F / 8°C 27°F / -3°C 46% 30.06 in
(1018 mb)
SSE 25.3 mph
(SSE 41 kph)
- 10SM
11:55
Clear
45°F / 7°C 27°F / -3°C 49% 30.06 in
(1018 mb)
SSE 19.6 mph
(SSE 32 kph)
- 10SM
11:35
Partly Cloudy
45°F / 7°C 27°F / -3°C 49% 30.09 in
(1019 mb)
SSE 19.6 mph
(SSE 32 kph)
- 10SM
11:15
Clear
45°F / 7°C 27°F / -3°C 49% 30.09 in
(1019 mb)
SSE 25.3 mph
(SSE 41 kph)
- 10SM
10:55
Partly Cloudy
45°F / 7°C 27°F / -3°C 49% 30.09 in
(1019 mb)
SSE 24.2 mph
(SSE 39 kph)
- 10SM
10:35
Clear
43°F / 6°C 27°F / -3°C 53% 30.09 in
(1019 mb)
SSE 21.9 mph
(SSE 35 kph)
- 10SM
10:15
Clear
41°F / 5°C 27°F / -3°C 57% 30.12 in
(1020 mb)
SSE 13.8 mph
(SSE 22 kph)
- 10SM
09:55
Partly Cloudy
41°F / 5°C 27°F / -3°C 57% 30.12 in
(1020 mb)
SSE 18.4 mph
(SSE 30 kph)
- 10SM
09:35
Partly Cloudy
37°F / 3°C 25°F / -4°C 60% 30.15 in
(1021 mb)
SSE 16.1 mph
(SSE 26 kph)
- 10SM
09:15
Partly Cloudy
37°F / 3°C 25°F / -4°C 60% 30.12 in
(1020 mb)
SE 15 mph
(SE 24 kph)
- 10SM
08:55
Overcast
36°F / 2°C 23°F / -5°C 60% 30.15 in
(1021 mb)
SSE 19.6 mph
(SSE 32 kph)
- 10SM
08:35
Overcast
36°F / 2°C 23°F / -5°C 60% 30.15 in
(1021 mb)
SE 12.7 mph
(SE 20 kph)
- 10SM
08:15
Overcast
34°F / 1°C 23°F / -5°C 65% 30.15 in
(1021 mb)
SE 10.4 mph
(SE 17 kph)
- 10SM
07:55
Overcast
34°F / 1°C 23°F / -5°C 65% 30.15 in
(1021 mb)
SE 13.8 mph
(SE 22 kph)
- 10SM
07:35
Overcast
34°F / 1°C 21°F / -6°C 60% 30.18 in
(1022 mb)
SE 10.4 mph
(SE 17 kph)
- 10SM
07:15
Overcast
32°F / 0°C 21°F / -6°C 64% 30.18 in
(1022 mb)
SE 10.4 mph
(SE 17 kph)
- 10SM
06:55
Overcast
32°F / 0°C 21°F / -6°C 64% 30.18 in
(1022 mb)
SE 11.5 mph
(SE 19 kph)
- 10SM
06:35
Overcast
32°F / 0°C 21°F / -6°C 64% 30.18 in
(1022 mb)
SE 8.1 mph
(SE 13 kph)
- 10SM
06:15
Overcast
32°F / 0°C 21°F / -6°C 64% 30.18 in
(1022 mb)
SE 9.2 mph
(SE 15 kph)
- 10SM
05:55
Overcast
32°F / 0°C 21°F / -6°C 64% 30.18 in
(1022 mb)
SE 8.1 mph
(SE 13 kph)
- 10SM
05:35
Overcast
30°F / -1°C 19°F / -7°C 64% 30.18 in
(1022 mb)
SE 8.1 mph
(SE 13 kph)
- 10SM
05:15
Overcast
30°F / -1°C 19°F / -7°C 64% 30.18 in
(1022 mb)
SE 8.1 mph
(SE 13 kph)
- 10SM
04:55
Overcast
30°F / -1°C 19°F / -7°C 64% 30.18 in
(1022 mb)
SE 5.8 mph
(SE 9 kph)
- 10SM
04:35
Overcast
28°F / -2°C 19°F / -7°C 69% 30.18 in
(1022 mb)
SE 5.8 mph
(SE 9 kph)
- 10SM
04:15
Overcast
30°F / -1°C 19°F / -7°C 64% 30.18 in
(1022 mb)
SE 5.8 mph
(SE 9 kph)
- 10SM
03:55
Overcast
30°F / -1°C 19°F / -7°C 64% 30.15 in
(1021 mb)
ESE 6.9 mph
(ESE 11 kph)
- 10SM
03:35
Overcast
30°F / -1°C 19°F / -7°C 64% 30.15 in
(1021 mb)
ESE 6.9 mph
(ESE 11 kph)
- 10SM
03:15
Overcast
28°F / -2°C 19°F / -7°C 69% 30.15 in
(1021 mb)
ESE 8.1 mph
(ESE 13 kph)
- 10SM
02:55
Overcast
28°F / -2°C 19°F / -7°C 69% 30.15 in
(1021 mb)
E 5.8 mph
(E 9 kph)
- 10SM
02:35
Overcast
28°F / -2°C 19°F / -7°C 69% 30.15 in
(1021 mb)
E 6.9 mph
(E 11 kph)
- 10SM
02:15
Overcast
28°F / -2°C 19°F / -7°C 69% 30.15 in
(1021 mb)
ESE 6.9 mph
(ESE 11 kph)
- 10SM
01:55
Overcast
28°F / -2°C 19°F / -7°C 69% 30.15 in
(1021 mb)
ESE 6.9 mph
(ESE 11 kph)
- 10SM
01:35
Overcast
28°F / -2°C 19°F / -7°C 69% 30.15 in
(1021 mb)
E 5.8 mph
(E 9 kph)
- 10SM
01:15
Overcast
28°F / -2°C 19°F / -7°C 69% 30.15 in
(1021 mb)
E 6.9 mph
(E 11 kph)
- 10SM
00:55
Overcast
28°F / -2°C 19°F / -7°C 69% 30.15 in
(1021 mb)
ESE 5.8 mph
(ESE 9 kph)
- 10SM
00:35
Overcast
28°F / -2°C 19°F / -7°C 69% 30.15 in
(1021 mb)
E 4.6 mph
(E 7 kph)
- 10SM
00:15
Overcast
28°F / -2°C 18°F / -8°C 64% 30.15 in
(1021 mb)
E 5.8 mph
(E 9 kph)
- 10SM
Time Weather Temperature Dewpoint Humidity Pressure Winds Precip Visibility


Weather for websites

WeatherForYou.com, LLC is not responsible for any damages or problems caused by this service. Current weather conditions are obtained from the closest station including government and personal stations which may have varying degrees of accuracy. Weather forecasts are derived from the NOAA NDFD. Like all things, this site belongs to Jesus Christ... He just trusts me to maintain it. If you have any questions or comments email webmaster@weatherforyou.com

Copyright © 2014, WeatherForYou.com LLC. All rights reserved.